Louisville Bowman, KY

1:40 AM EDT on April 23, 2017 (GMT -0400)
Bowman

Weather History for KLOU - May, 2013

Change the Weather History Date:

Thursday, May 23, 2013

  Actual Average Record
Temperature  
Mean Temperature 64 °F 68 °F  
Max Temperature 72 °F 78 °F 90 °F (1975)
Min Temperature 55 °F 58 °F 40 °F (1963)
Degree Days  
Heating Degree Days 1 1  
Month to date heating degree days 54 66  
Since 1 July heating degree days 4317 4257  
Cooling Degree Days 0 5  
Month to date cooling degree days 89 68  
Year to date cooling degree days 126 102  
Growing Degree Days 14 (Base 50)    
Moisture  
Dew Point 57 °F    
Average Humidity 75    
Maximum Humidity 93    
Minimum Humidity 57    
Precipitation  
Precipitation 0.01 in 0.14 in 1.82 in (2011)
Month to date precipitation 3.48 3.93  
Year to date precipitation 18.07 18.73  
Sea Level Pressure  
Sea Level Pressure 29.94 in    
Wind  
Wind Speed 8 mph (West)    
Max Wind Speed 18 mph    
Max Gust Speed 28 mph    
Visibility 10 miles    
Events      
T = Trace of Precipitation, MM = Missing Value Source: NWS Daily Summary

Daily Weather History Graph

Daily Weather History Graph

Search for Another Location

Airport or City:

Trip Planner

Search our weather history database for the weather conditions in past years. The results will help you decide how hot, cold, wet, or windy it might be!

Date:

Astronomy

May. 23, 2013 Rise Set
Actual Time 6:25 AM EDT 8:53 PM EDT
Civil Twilight 5:55 AM EDT 9:24 PM EDT
Nautical Twilight 5:17 AM EDT 10:01 PM EDT
Astronomical Twilight 4:36 AM EDT 10:43 PM EDT
Moon 7:26 PM EDT 5:08 AM EDT
Length of Visible Light 15h 28m
Length of Day
14h 28m
Waxing Gibbous, 97% of the Moon is Illuminated
May 23
Waxing Gibbous
May 25
Full
May 31
Last Quarter
Jun 8
New
Jun 16
First Quarter

Hourly Weather History & Observations

Time (EDT) Temp. Dew Point Humidity Pressure Visibility Wind Dir Wind Speed Gust Speed Precip Events Conditions
12:53 AM 66.0 °F 63.0 °F 90% 29.83 in 10.0 mi South 3.5 mph - N/A   Clear
1:53 AM 64.9 °F 63.0 °F 93% 29.83 in 10.0 mi South 3.5 mph - N/A   Clear
2:53 AM 64.9 °F 62.1 °F 90% 29.83 in 10.0 mi South 3.5 mph - N/A   Partly Cloudy
3:53 AM 63.0 °F 61.0 °F 93% 29.84 in 10.0 mi SW 3.5 mph - N/A   Mostly Cloudy
4:53 AM 64.0 °F 62.1 °F 93% 29.85 in 10.0 mi Calm Calm - 0.00 in   Overcast
5:53 AM 64.0 °F 61.0 °F 90% 29.86 in 10.0 mi SSW 3.5 mph - N/A   Overcast
6:53 AM 64.0 °F 61.0 °F 90% 29.88 in 10.0 mi SW 4.6 mph - N/A   Overcast
7:53 AM 64.9 °F 59.0 °F 81% 29.90 in 10.0 mi WNW 4.6 mph - N/A   Mostly Cloudy
8:53 AM 66.0 °F 57.9 °F 75% 29.92 in 10.0 mi WNW 6.9 mph - N/A   Mostly Cloudy
9:53 AM 69.1 °F 55.9 °F 63% 29.93 in 10.0 mi WNW 6.9 mph - 0.01 in   Clear
10:53 AM 70.0 °F 54.0 °F 57% 29.91 in 10.0 mi West 9.2 mph - N/A   Partly Cloudy
11:53 AM 70.0 °F 54.0 °F 57% 29.92 in 10.0 mi West 10.4 mph - N/A   Overcast
12:53 PM 70.0 °F 54.0 °F 57% 29.92 in 10.0 mi West 8.1 mph - N/A   Overcast
1:53 PM 69.1 °F 54.0 °F 58% 29.93 in 10.0 mi WNW 9.2 mph - N/A   Overcast
2:53 PM 64.9 °F 57.0 °F 75% 29.96 in 10.0 mi NW 11.5 mph - 0.00 in   Overcast
3:53 PM 62.1 °F 57.0 °F 84% 29.97 in 10.0 mi SW 3.5 mph - 0.00 in   Overcast
4:53 PM 64.9 °F 55.9 °F 73% 29.97 in 10.0 mi West 6.9 mph - N/A   Overcast
5:53 PM 66.9 °F 54.0 °F 63% 29.97 in 10.0 mi West 13.8 mph - N/A   Overcast
6:53 PM 68.0 °F 54.0 °F 61% 29.97 in 10.0 mi WNW 12.7 mph - N/A   Scattered Clouds
7:53 PM 66.9 °F 54.0 °F 63% 29.99 in 10.0 mi NW 10.4 mph - N/A   Mostly Cloudy
8:53 PM 63.0 °F 55.9 °F 78% 30.02 in 10.0 mi NW 12.7 mph 18.4 mph 0.00 in   Overcast
9:07 PM 62.6 °F 55.4 °F 77% 30.03 in 10.0 mi NW 9.2 mph - N/A   Overcast
9:53 PM 62.1 °F 54.0 °F 75% 30.04 in 10.0 mi NNW 11.5 mph 17.3 mph N/A   Overcast
10:53 PM 57.9 °F 48.9 °F 72% 30.09 in 10.0 mi NNW 8.1 mph 23.0 mph N/A   Overcast
11:53 PM 55.9 °F 46.9 °F 72% 30.11 in 10.0 mi NNW 9.2 mph 19.6 mph N/A   Overcast